Theta_e
318 318 317 317 316 316 317 318 318 319 320 320 319 318 317 316 316 315 315 315 314 314 313 312 312 311 311 310 310 310 310 310 311 311 311 311 311 311 310 309 308 307 307 306 306 305 305 305 304 304 304 304 305 305 305 306 306 306 306 306 306 306 306 306 306 306 305 305 305 305 305 304 304 304 304 304 304 304 304 303 303 303 303 302 302 302
318 317 317 317 317 317 318 319 319 319 319 319 318 317 316 316 315 315 315 314 314 313 312 311 311 310 310 309 309 310 310 310 310 310 311 311 311 310 309 308 308 307 306 306 305 305 305 304 304 303 303 303 303 304 304 304 304 304 305 304 304 304 304 304 304 304 304 304 304 304 303 303 303 303 303 303 303 302 302 302 302 301 301 301 301 301
317 317 317 317 318 319 319 319 319 319 318 318 317 316 315 315 315 315 314 314 313 312 312 311 310 309 309 309 309 309 309 309 310 310 310 310 309 309 309 308 307 306 306 305 305 304 304 304 303 303 303 302 302 302 302 303 303 303 303 303 303 303 303 303 303 303 303 302 303 302 302 302 302 302 302 302 301 301 300 300 300 299 299 299 299 299
317 318 318 318 319 319 319 319 319 318 318 317 316 315 315 314 314 314 314 313 312 312 311 310 310 309 309 308 308 308 309 309 309 309 309 309 309 308 308 307 307 306 306 305 304 304 304 303 303 302 302 302 302 302 301 301 301 301 301 301 301 302 302 302 302 302 301 301 301 301 301 301 301 301 300 300 299 299 298 298 297 297 296 296 296 297
318 318 319 319 319 319 319 318 318 318 318 317 316 316 315 315 315 314 313 312 311 310 310 309 309 308 308 308 308 308 308 308 308 308 308 308 308 307 307 307 306 306 305 305 304 303 303 303 302 302 302 301 301 301 301 301 300 300 300 300 300 300 300 301 301 300 300 300 300 300 300 300 299 299 299 298 297 297 296 295 295 294 294 293 294 294
318 319 319 319 319 319 318 318 318 318 318 317 317 316 316 316 315 314 313 311 310 309 309 308 308 307 307 307 307 307 307 307 307 307 307 307 306 306 306 306 306 305 305 304 304 303 303 302 302 302 302 301 301 301 300 300 300 299 299 299 299 299 299 299 299 299 299 299 299 298 298 298 297 297 296 296 295 294 294 293 293 292 292 291 291 292
318 319 319 319 318 318 318 318 318 318 317 317 316 316 315 315 314 313 312 311 310 309 308 307 307 307 306 306 306 307 307 307 307 306 306 306 306 305 305 305 305 304 304 304 303 303 302 302 302 302 302 301 301 300 299 299 298 298 297 297 297 297 297 297 297 297 297 297 297 297 296 296 295 295 294 294 293 292 292 291 291 291 290 290 290 290
318 318 318 318 318 318 318 318 318 317 317 316 316 315 314 313 312 312 311 310 309 308 307 306 306 306 306 306 306 306 306 306 306 306 305 305 305 305 304 304 304 303 304 303 303 302 302 302 302 302 301 300 299 298 297 296 296 295 295 295 295 295 295 295 295 295 295 295 294 294 294 293 293 293 292 292 291 291 290 290 290 290 290 290 290 290
316 317 317 318 318 318 317 317 317 316 316 315 314 314 313 312 311 310 309 309 308 307 306 306 306 305 305 306 306 306 306 306 306 305 304 304 304 304 303 303 303 303 303 303 302 302 302 302 302 301 300 299 297 296 295 294 293 293 292 292 292 293 293 293 293 293 293 292 292 292 292 292 291 291 291 290 290 290 290 290 290 289 289 290 290 290
315 315 316 316 316 316 316 316 316 315 315 314 313 312 312 311 310 309 308 308 307 307 307 306 306 305 305 305 306 306 306 306 306 305 304 304 303 303 302 302 302 302 302 302 302 302 302 301 301 299 298 296 295 293 292 292 291 291 291 290 290 291 291 291 291 291 291 291 291 291 290 290 290 290 290 290 290 290 290 289 289 289 289 290 290 290
314 314 314 314 314 314 314 314 314 314 313 313 312 311 311 310 310 309 308 308 307 307 307 306 306 306 305 305 306 306 306 306 305 305 304 304 303 303 302 302 302 302 302 302 301 301 301 300 299 297 295 294 292 291 290 290 290 289 289 289 289 289 289 289 289 289 289 290 290 290 290 290 290 290 290 290 290 290 290 290 290 289 289 289 289 290
313 312 312 312 312 312 312 313 312 312 312 311 311 310 310 310 309 309 308 308 307 307 307 307 306 306 306 306 306 306 306 305 305 305 304 303 303 302 302 301 301 301 301 301 301 300 300 298 297 295 293 291 290 290 289 289 289 289 289 289 289 289 289 289 289 289 289 289 289 289 289 289 290 290 290 290 290 290 290 290 290 289 289 289 289 289
311 311 311 310 310 310 311 311 311 311 310 310 310 310 310 309 309 308 307 307 307 307 307 307 306 306 306 306 306 305 305 305 305 304 304 303 302 302 301 301 300 300 300 300 300 299 298 296 294 292 291 290 289 289 289 288 288 288 289 289 289 289 289 289 289 289 289 289 289 289 289 289 290 290 290 290 290 290 290 290 290 289 289 289 289 289
310 310 309 309 309 309 309 310 310 310 310 310 310 309 309 309 309 308 307 306 307 307 307 306 306 306 305 305 305 305 305 305 304 304 303 302 302 301 301 300 300 299 299 299 298 297 296 294 292 291 290 289 289 288 288 288 288 288 288 288 288 288 288 288 289 289 289 289 289 289 289 289 290 290 290 290 290 290 290 290 290 290 289 289 289 289
310 310 309 309 309 309 309 309 309 310 309 309 309 308 308 308 308 307 307 306 306 307 306 306 305 305 305 305 305 305 305 304 304 303 303 302 301 301 300 300 300 299 298 298 297 295 294 292 291 290 289 289 288 288 288 288 288 288 288 288 288 288 288 288 289 289 289 289 289 289 289 289 289 290 290 290 290 290 290 290 290 290 289 289 289 289
310 310 309 309 309 309 309 309 309 309 308 308 308 308 308 308 307 307 306 307 307 306 306 305 304 304 304 304 304 304 305 304 303 303 302 302 301 300 300 300 299 298 297 296 295 293 292 291 290 289 289 288 288 288 288 289 289 288 288 288 288 288 288 288 289 289 289 289 289 289 289 289 289 290 290 290 290 290 290 290 290 290 290 289 289 289
310 310 309 309 308 308 309 309 308 308 308 307 307 307 307 307 307 307 306 307 307 307 306 305 304 304 304 304 304 304 304 304 303 302 302 301 300 300 300 299 298 297 296 295 293 292 291 290 289 289 289 288 288 288 289 289 289 288 288 288 288 288 288 289 289 289 289 289 289 289 289 289 289 290 290 290 290 290 290 290 290 290 290 290 289 289
310 310 309 308 308 308 308 308 308 307 307 307 306 306 306 306 306 306 306 307 307 306 306 305 304 304 305 304 304 304 304 303 303 302 301 301 300 299 299 298 297 296 295 293 292 291 290 290 289 289 288 288 288 289 289 289 288 288 288 288 288 288 288 289 289 289 289 289 289 289 289 289 289 289 290 290 290 290 290 290 290 290 290 290 289 289
310 310 309 308 307 306 307 307 307 307 306 306 306 305 305 306 306 306 306 306 306 306 305 305 305 305 305 306 306 305 304 303 302 302 301 300 299 299 298 297 296 295 294 292 291 290 290 289 289 289 288 288 288 288 288 288 288 288 288 288 288 288 288 289 289 289 289 289 289 289 289 289 289 289 290 290 290 290 290 290 290 290 290 290 290 289
309 308 308 307 306 305 306 306 307 307 306 305 305 305 305 305 305 306 306 306 306 305 305 305 305 305 305 305 305 304 303 302 301 301 300 299 299 298 297 296 295 293 292 291 291 290 289 289 289 288 288 288 288 288 288 288 288 288 288 288 288 288 288 289 289 289 289 289 289 289 289 289 289 289 290 290 290 290 290 290 290 290 290 290 290 290
307 307 307 306 305 305 305 306 306 305 305 304 304 304 304 305 305 305 305 305 305 304 304 304 304 304 304 304 304 303 302 301 301 300 299 298 298 297 296 294 293 292 291 290 290 289 289 289 288 288 288 288 288 288 288 288 288 288 288 288 288 288 288 288 288 288 288 289 289 289 289 289 289 289 290 290 290 290 290 290 290 290 290 290 290 290
306 306 306 306 305 305 305 305 305 304 304 303 303 303 303 304 304 305 305 305 304 304 303 303 303 304 304 303 302 301 301 300 300 299 298 297 296 295 294 293 292 291 290 290 289 289 288 288 288 288 288 288 288 288 288 288 288 288 288 288 288 288 288 288 288 288 288 289 289 289 289 289 289 290 290 290 290 290 290 290 290 290 290 290 290 290
305 305 305 305 305 305 304 304 304 304 303 303 303 303 303 303 304 304 305 304 304 304 303 303 303 303 302 302 301 300 300 299 299 298 297 296 295 294 292 291 290 290 289 289 289 288 288 288 288 288 288 288 288 288 288 288 288 288 288 288 288 288 288 288 288 288 288 288 289 289 289 289 289 289 290 290 290 290 290 290 290 290 290 290 290 290
304 304 305 305 305 304 305 305 304 304 303 303 302 302 302 303 303 303 303 304 303 303 303 303 302 302 301 301 300 300 299 299 298 297 296 294 293 292 291 290 290 289 289 288 288 288 288 287 288 288 287 287 288 288 288 288 288 288 288 288 288 288 288 288 288 288 288 288 289 289 289 289 289 290 290 290 290 290 290 290 290 290 290 290 290 290
304 304 305 304 304 304 304 304 304 304 304 303 303 303 302 302 302 303 303 302 302 302 302 302 301 301 301 300 300 299 299 298 297 296 294 293 292 291 290 289 289 289 288 288 288 287 287 287 287 287 287 288 288 288 288 288 288 288 288 288 288 288 288 288 288 288 288 288 289 289 289 289 289 289 290 290 290 290 290 290 290 290 290 290 290 290
304 304 304 304 304 304 304 304 304 304 304 304 303 303 303 303 302 302 302 302 301 301 301 301 301 301 300 300 299 299 298 297 296 294 292 291 290 290 289 289 288 288 288 288 287 287 287 287 287 287 288 288 288 288 288 288 288 288 288 288 288 288 288 288 288 288 288 289 289 289 289 289 289 289 289 290 290 290 290 290 290 290 290 290 290 290
303 303 303 303 303 303 303 303 303 303 303 303 303 303 303 303 303 302 302 301 301 301 301 300 300 300 300 299 298 297 296 295 293 292 290 290 289 289 288 288 288 288 287 287 287 287 287 287 287 288 288 288 288 288 288 288 288 288 288 288 288 288 288 288 288 288 288 289 289 289 289 289 289 289 289 290 290 290 290 290 290 290 290 290 290 290
303 303 303 302 302 302 302 303 303 303 303 303 303 303 303 303 303 302 302 302 301 301 300 300 300 299 298 297 297 296 294 293 291 290 289 289 288 288 288 287 287 287 287 287 287 287 287 287 287 288 288 288 288 288 288 288 288 288 288 288 288 288 288 288 288 288 289 289 289 289 289 289 289 290 290 290 290 290 290 290 290 290 290 290 290 290
302 302 302 302 302 301 301 301 302 302 302 302 302 302 302 302 302 302 302 301 301 300 299 299 298 297 297 296 294 293 292 291 290 289 288 288 288 288 287 287 287 287 287 287 287 287 287 287 287 287 287 288 288 288 288 288 288 288 288 288 288 288 288 288 288 289 289 289 289 289 289 289 289 290 290 290 290 290 290 290 290 290 290 290 290 290
301 301 301 301 301 300 300 300 300 300 300 301 301 301 301 301 301 300 300 299 298 298 297 296 296 295 294 293 292 291 290 290 289 288 288 288 288 287 287 287 287 287 287 287 287 287 287 287 287 287 287 287 288 288 288 288 288 288 288 288 288 288 288 288 288 289 289 289 289 289 289 289 289 290 290 290 290 290 290 290 290 290 290 290 290 290
299 299 299 299 299 299 299 298 298 298 298 299 299 299 299 299 299 298 297 296 295 295 294 293 292 292 291 290 290 290 290 289 289 288 288 287 287 287 287 287 287 287 287 287 287 287 287 287 287 288 287 288 288 288 288 288 288 288 288 288 289 289 289 289 288 289 289 289 289 289 289 289 289 289 289 290 290 290 290 290 290 290 290 290 290 290
296 296 297 297 297 297 296 296 296 296 296 296 296 296 296 296 295 295 294 293 292 292 291 291 290 290 289 289 289 289 289 289 288 288 288 287 287 287 287 287 287 287 287 287 287 287 288 288 288 288 288 288 288 288 288 289 289 289 289 288 289 289 288 288 288 289 289 289 289 289 289 289 289 289 289 289 289 289 289 289 290 290 290 290 290 290
293 293 293 294 294 294 294 293 293 293 293 293 293 293 293 293 292 292 291 291 290 290 290 289 289 288 288 288 288 288 288 288 288 288 287 287 287 287 287 287 287 288 287 287 287 288 288 288 288 288 289 289 289 289 289 289 289 289 288 288 289 288 288 289 289 289 289 289 289 289 289 289 289 289 289 289 289 289 289 289 289 289 289 290 290 290
290 290 291 291 291 291 291 291 291 291 291 290 290 290 290 290 290 290 289 289 289 289 289 289 288 288 288 288 288 288 288 288 287 287 287 287 287 287 287 287 287 288 288 287 287 287 288 288 288 288 288 289 289 289 288 288 289 288 288 289 289 289 289 289 289 289 289 289 289 289 289 289 289 289 289 289 289 289 289 289 289 289 289 289 289 290
289 289 289 289 289 289 289 289 289 289 289 289 289 289 289 289 289 288 288 288 288 288 288 288 288 288 288 288 287 288 288 287 287 287 287 287 287 287 287 287 287 288 288 288 287 287 287 288 288 288 288 288 288 288 288 288 288 288 289 289 289 289 289 289 289 289 289 289 289 289 289 289 289 289 289 289 289 289 289 289 289 289 289 289 289 289
288 288 288 288 288 288 288 288 288 288 288 288 288 288 288 288 288 288 288 288 288 288 288 288 288 288 288 288 288 287 287 287 287 287 287 287 287 287 287 287 287 287 287 287 287 287 287 287 287 287 287 287 288 288 288 289 289 289 289 289 289 289 289 289 289 289 289 289 289 289 289 289 289 288 288 288 288 288 288 288 288 288 289 289 289 289
288 288 288 288 288 288 288 288 288 288 288 288 288 288 288 288 288 288 287 287 287 287 287 288 288 288 288 288 287 287 287 287 287 287 287 287 287 287 287 287 287 287 287 287 287 287 287 287 287 287 287 287 288 288 288 288 289 289 289 289 289 289 289 289 289 289 289 289 289 289 289 289 289 288 288 288 288 288 287 288 288 288 288 288 289 289
288 288 288 288 288 288 288 288 288 288 288 288 287 287 287 287 287 287 287 287 287 287 287 287 287 287 287 287 287 287 287 287 287 287 287 287 287 287 287 287 287 287 287 287 287 287 287 287 287 287 287 288 288 288 288 288 288 289 289 289 289 289 289 289 290 290 290 290 290 290 290 289 289 289 288 288 288 287 287 287 287 288 288 288 289 289
288 288 288 288 288 288 288 288 288 288 287 287 287 287 287 287 287 287 287 287 287 287 287 287 287 287 287 287 287 287 287 287 287 287 287 287 287 287 287 287 287 288 288 287 287 287 287 287 288 288 288 288 288 288 288 288 288 289 289 289 289 289 290 290 290 290 290 290 290 290 290 290 290 289 289 288 288 288 287 287 287 287 288 288 288 289
288 288 288 288 288 288 288 288 287 287 287 287 287 287 287 287 287 287 287 287 286 286 286 286 286 286 286 287 287 287 287 287 287 287 287 287 287 287 287 287 288 288 288 288 288 287 287 287 288 288 288 288 288 288 288 288 289 289 289 289 289 289 290 290 290 290 291 291 291 291 291 290 290 290 289 289 288 288 287 287 287 287 287 288 288 288
288 288 288 287 287 287 287 287 287 287 286 286 286 286 286 286 286 286 286 286 286 286 286 286 286 286 286 286 286 287 287 287 287 287 287 287 288 288 288 288 288 288 288 288 288 287 287 287 288 288 288 288 288 288 288 288 289 289 289 289 289 289 290 290 291 291 291 291 291 291 291 291 291 291 290 290 289 288 287 287 287 287 287 288 288 288
287 287 287 287 287 287 287 287 286 286 286 286 286 286 286 286 286 286 286 286 286 286 286 286 286 286 286 287 287 287 287 287 287 287 287 287 287 287 288 288 288 288 288 288 287 287 287 287 288 288 288 288 288 288 288 288 288 288 289 289 289 289 290 290 291 291 291 292 292 292 292 292 292 291 291 290 289 288 288 287 287 287 287 287 288 288
287 287 287 287 287 287 286 286 286 286 286 286 286 286 286 286 286 286 286 286 286 286 286 286 286 287 287 287 287 287 287 287 287 287 287 287 287 287 288 288 288 288 288 288 288 288 288 288 288 288 288 288 288 288 288 288 288 288 288 289 289 289 290 290 290 291 291 292 292 292 292 292 291 291 291 290 289 288 287 287 287 287 287 287 287 288
287 287 287 287 286 286 286 286 286 286 286 286 286 286 286 286 286 286 287 286 287 287 287 287 287 287 287 287 287 287 288 288 288 288 288 288 288 288 288 288 288 288 288 288 288 288 288 288 288 288 288 288 288 288 288 288 288 288 289 289 289 290 290 290 290 291 291 291 291 292 291 291 291 291 290 289 289 288 287 287 287 287 287 287 287 288
287 287 286 286 286 286 286 286 287 287 287 287 287 287 287 287 287 287 287 287 287 287 287 287 287 287 287 287 287 287 288 288 288 288 288 288 288 288 288 288 288 288 288 288 288 288 288 288 288 288 288 288 288 288 288 288 288 288 289 289 290 290 290 290 291 291 291 291 291 291 291 291 291 290 290 289 288 288 287 287 286 286 287 287 287 287
287 286 286 286 286 287 287 287 287 287 287 287 287 287 287 287 287 287 287 287 287 287 287 287 287 287 287 287 287 287 287 288 288 288 288 288 288 288 288 288 288 288 288 288 288 288 288 288 288 288 288 288 288 288 288 289 289 289 289 290 290 291 291 291 291 291 291 291 291 292 292 291 291 290 289 289 288 288 287 287 286 286 287 287 287 287
287 287 287 287 287 287 287 287 287 287 287 287 287 287 287 288 287 287 287 287 287 287 287 287 287 287 287 287 287 287 287 288 288 288 288 288 288 288 288 288 288 288 288 288 288 288 288 288 288 288 288 289 289 289 289 290 290 290 291 291 291 291 291 291 291 291 291 291 291 292 292 291 291 290 289 289 288 287 287 287 286 286 287 287 287 287
287 287 287 287 287 287 287 287 287 287 287 287 287 287 287 287 287 287 287 287 287 287 287 287 287 287 287 287 287 287 288 288 288 288 288 288 288 288 288 288 288 288 288 288 288 288 288 288 288 289 289 290 290 290 290 291 291 291 291 291 291 291 291 291 291 291 291 292 292 292 291 291 290 290 289 289 288 287 287 287 287 286 287 287 287 287
287 287 287 287 287 287 287 287 287 287 287 287 287 287 287 287 288 287 287 287 287 287 287 287 287 287 287 287 287 287 288 288 288 288 288 288 288 288 288 288 288 288 288 288 288 288 288 289 289 290 290 291 291 291 291 291 292 292 292 292 292 292 291 291 291 291 291 291 291 291 291 290 290 289 288 288 288 287 287 287 286 287 287 287 287 287
287 287 287 287 287 287 287 287 287 287 287 287 287 287 287 288 288 288 288 288 288 288 288 288 288 287 287 288 288 288 288 288 288 288 288 288 288 288 288 288 288 288 288 288 288 289 289 290 290 290 291 291 292 292 292 292 292 292 292 292 291 291 291 291 291 291 291 291 291 290 290 289 289 288 288 287 287 287 287 286 286 287 287 287 287 287
287 287 287 287 287 287 287 287 287 287 287 287 288 288 288 288 288 288 288 288 288 288 288 288 288 288 288 288 288 288 288 289 289 289 289 289 288 288 288 288 288 288 289 289 289 290 290 291 291 291 291 291 292 292 292 292 292 291 291 291 291 291 291 291 290 290 290 290 290 289 289 289 288 288 287 287 287 286 286 286 286 286 287 287 287 287
Wind_Speed
28 27 26 25 24 24 23 23 23 24 24 23 23 23 22 21 19 18 18 18 18 19 20 21 22 22 21 21 20 20 19 19 19 18 17 16 15 14 15 15 15 14 14 13 12 12 12 12 12 13 14 15 16 17 18 19 20 20 20 20 20 20 21 21 22 22 22 21 21 21 20 19 17 15 14 14 13 13 13 12 12 11 10 9 9 10
27 26 25 24 23 24 23 23 22 22 21 21 20 20 19 18 17 16 16 17 17 18 20 20 21 20 20 20 19 19 19 19 19 18 16 15 14 14 14 14 14 14 13 12 12 11 11 11 11 11 11 11 12 13 14 15 16 17 17 18 19 19 20 21 21 20 20 19 19 18 17 16 14 13 13 13 13 13 13 12 12 11 11 10 10 11
25 24 23 23 22 22 21 20 19 18 17 17 16 16 15 15 15 15 15 16 17 18 19 19 20 19 19 19 19 19 19 19 18 17 16 15 14 14 14 13 13 13 12 12 11 11 11 10 10 10 10 10 10 11 12 12 13 14 15 16 17 18 18 18 18 18 17 17 17 16 15 14 13 13 13 13 13 13 13 13 12 12 11 11 11 12
24 24 23 22 21 20 18 17 16 15 14 14 14 13 14 14 15 15 15 16 17 18 18 19 19 19 18 19 19 19 19 19 18 17 16 15 14 14 13 13 13 12 12 11 11 11 11 10 10 10 10 10 10 11 11 12 13 14 15 16 16 17 17 17 17 17 17 17 16 16 15 14 14 14 14 14 14 14 14 13 13 13 12 12 12 12
24 23 22 21 20 18 16 15 15 14 14 13 13 14 14 15 15 15 15 16 17 18 18 18 18 18 18 19 19 19 19 18 18 17 16 15 14 14 13 13 13 13 12 11 11 11 10 10 10 10 10 10 11 11 12 13 14 15 16 16 17 17 18 18 18 18 18 17 17 16 16 15 15 15 14 14 14 14 14 14 14 13 13 12 12 13
23 22 20 19 18 17 16 16 16 16 16 16 16 16 16 16 16 16 16 17 18 18 18 18 19 19 19 19 19 19 19 18 17 17 16 15 15 15 14 13 13 13 12 12 11 11 10 10 10 10 11 11 12 13 14 14 15 16 17 18 18 19 19 19 19 19 19 18 18 17 16 16 16 15 15 15 15 15 14 14 14 14 13 13 13 13
21 20 19 17 16 16 16 17 17 18 19 19 19 19 18 18 17 18 18 18 18 18 18 19 19 20 20 20 20 19 19 18 17 16 16 16 16 15 14 14 14 13 13 12 11 11 10 11 11 11 11 12 13 14 14 15 16 17 17 18 19 19 20 20 20 19 19 18 18 17 16 16 16 15 15 15 15 14 14 14 14 14 13 13 13 13
19 19 18 17 17 17 18 18 19 19 20 20 20 20 19 19 18 18 19 18 18 19 19 20 20 21 21 21 20 20 19 18 17 17 16 16 16 15 14 14 14 14 13 12 11 10 11 11 12 12 12 13 14 14 15 15 16 16 17 18 18 19 19 19 19 19 18 18 17 16 16 15 15 15 14 14 14 14 14 13 13 13 13 13 13 12
19 18 18 18 18 17 18 18 18 19 19 18 19 19 19 18 18 18 18 19 19 20 20 21 22 22 22 21 21 20 19 18 18 17 17 17 16 15 13 12 13 13 13 11 11 11 11 12 12 13 13 13 14 14 14 15 15 15 16 16 17 17 18 18 17 17 16 16 15 15 14 14 14 14 13 13 13 13 13 13 13 13 13 13 12 12
21 20 19 19 18 18 17 17 18 18 17 17 17 17 17 17 18 18 18 19 20 21 21 22 23 23 22 22 21 20 19 19 18 18 17 17 16 14 12 12 13 13 12 11 11 11 12 12 13 13 13 13 13 13 13 14 14 14 14 15 15 15 15 15 15 15 14 14 14 13 13 13 13 12 12 12 12 12 12 12 12 12 12 12 12 11
23 22 21 20 20 19 18 18 18 17 17 17 17 16 17 17 18 19 19 21 21 21 22 22 23 23 23 22 21 20 20 19 18 18 17 17 16 15 14 14 14 13 12 11 11 12 12 13 13 13 13 13 12 12 12 12 12 13 13 13 13 14 14 13 13 13 13 12 12 12 12 12 11 11 11 11 11 11 11 11 11 11 12 12 11 11
23 23 22 22 21 21 20 19 19 18 18 18 18 18 18 19 19 20 20 21 22 22 22 22 22 22 23 23 22 21 20 19 18 17 16 16 15 15 15 15 14 13 12 12 12 12 13 13 13 13 13 12 11 11 11 11 11 12 12 12 12 12 12 12 12 11 11 11 11 11 11 11 11 10 10 10 10 10 10 11 11 11 11 11 11 11
23 23 22 22 22 22 21 20 20 19 19 19 20 20 21 21 21 21 20 21 21 22 22 22 22 22 22 22 21 20 20 19 18 17 16 15 15 15 15 14 13 13 12 12 13 13 13 13 13 12 12 11 10 10 10 10 11 11 11 11 11 11 11 11 11 10 10 10 10 10 10 10 10 10 9 9 9 10 10 10 10 10 11 11 11 11
23 23 23 22 22 22 22 21 21 21 21 21 21 21 21 22 22 21 21 21 21 21 21 21 22 22 22 22 21 20 19 17 17 16 16 16 16 15 15 14 14 13 13 13 13 13 13 13 12 12 11 10 10 9 9 9 10 10 10 10 10 10 10 10 10 10 10 10 10 9 9 9 9 9 9 9 9 9 9 10 10 10 11 11 11 11
24 24 23 23 24 24 23 22 22 22 22 22 21 21 22 22 22 21 21 22 21 21 21 21 22 22 22 21 21 19 18 17 16 16 16 16 16 16 15 14 14 14 14 13 13 13 13 12 12 11 10 10 9 9 9 9 9 10 10 10 10 9 9 9 9 9 9 9 9 9 9 9 9 9 8 8 9 9 9 9 10 10 11 11 11 11
25 25 24 24 24 25 24 23 23 22 22 22 22 22 22 22 21 21 21 22 21 21 21 22 23 22 22 21 21 19 17 16 17 17 17 16 16 16 15 14 14 14 14 13 13 13 12 12 11 11 10 9 9 8 8 9 9 9 9 9 9 9 9 9 9 9 9 9 9 8 8 8 8 8 8 8 8 8 9 9 10 10 10 11 11 11
26 26 26 25 25 25 25 25 23 23 22 23 23 22 21 20 20 20 20 21 21 22 23 24 24 23 22 21 21 20 18 17 17 17 17 17 16 16 15 15 14 14 14 13 13 12 12 12 11 10 9 9 8 8 9 9 9 9 9 9 8 9 9 9 9 8 8 8 8 8 8 8 8 8 8 8 8 8 9 9 9 10 10 10 10 10
27 26 26 25 25 25 26 25 24 24 23 23 23 22 21 20 20 20 21 21 22 23 24 24 25 24 23 22 21 20 19 17 17 17 17 17 17 16 16 15 15 14 14 13 13 12 12 11 11 10 9 9 9 9 9 9 9 9 8 8 8 8 8 8 8 8 8 8 8 8 8 8 7 7 8 8 8 8 8 9 9 9 9 9 9 9
26 26 25 24 24 24 25 25 25 24 23 23 22 22 21 22 22 22 22 22 23 24 24 24 24 24 23 22 21 19 18 17 17 17 18 17 17 16 16 15 15 14 14 13 13 12 12 11 11 10 9 9 9 9 9 9 9 8 8 8 8 8 8 8 8 8 8 8 8 8 7 7 7 7 7 8 8 8 8 8 8 8 8 8 8 8
24 24 24 23 22 22 23 24 24 23 22 22 22 22 22 23 24 24 24 24 24 23 23 23 22 22 21 20 19 18 17 16 17 18 18 17 16 16 15 15 15 14 14 13 13 12 12 11 11 10 9 9 9 9 9 9 9 8 8 8 8 8 8 8 8 8 8 8 8 7 7 7 7 7 7 8 8 8 8 8 8 8 8 7 7 7
23 23 23 22 21 21 21 22 21 20 19 19 20 22 23 24 24 25 25 24 24 23 22 22 21 20 19 17 16 16 16 16 17 17 17 17 16 16 15 15 14 14 14 13 12 12 12 11 11 10 10 10 10 10 9 9 9 8 8 8 8 8 8 8 8 8 8 8 7 7 7 7 7 7 7 7 7 7 7 7 7 7 7 7 7 7
21 21 21 21 20 19 20 20 18 17 17 18 19 21 23 23 23 24 24 23 23 23 22 22 21 19 18 16 15 16 16 16 17 17 16 16 16 16 15 15 14 14 14 13 12 12 12 11 10 10 10 10 10 10 9 9 9 8 8 8 8 8 8 8 8 8 8 8 7 7 7 7 7 7 7 7 7 7 7 7 7 7 7 7 7 7
20 20 20 19 18 18 19 18 17 17 17 18 19 20 21 22 22 21 21 21 21 21 21 20 19 18 17 16 16 17 17 17 17 16 16 16 16 16 15 14 14 14 13 12 12 12 11 11 10 10 10 10 10 10 9 9 8 8 8 8 8 8 8 8 8 8 8 8 7 7 7 7 7 7 7 7 7 6 6 6 6 6 6 6 6 6
18 18 18 17 16 17 17 17 17 17 17 18 19 20 20 21 20 20 20 20 20 19 19 18 18 18 18 18 18 18 18 18 17 17 16 16 16 15 14 14 14 13 13 12 12 11 11 11 11 11 11 10 10 10 9 9 8 8 8 8 8 8 8 8 8 8 8 8 8 7 7 7 7 7 7 6 6 6 6 6 6 6 6 6 6 6
16 16 15 15 15 15 15 15 15 16 17 18 19 20 20 20 20 19 19 18 18 18 18 18 18 18 19 19 19 19 19 18 17 17 16 16 16 15 14 14 14 13 12 12 11 11 11 11 11 11 11 10 10 9 9 8 8 8 8 8 8 8 8 8 8 8 8 8 8 8 7 7 7 7 6 6 6 6 6 5 5 5 5 5 6 6
14 14 14 13 13 13 13 13 14 14 16 17 18 19 19 19 19 19 18 18 18 18 19 19 19 20 20 20 20 19 19 18 17 16 16 16 15 14 14 14 13 13 12 12 11 11 11 11 11 11 11 10 10 9 9 8 8 8 8 8 7 8 8 8 8 8 8 8 8 8 7 7 7 7 6 6 6 6 6 6 6 6 6 6 6 6
14 13 13 12 12 12 12 12 12 13 14 15 17 18 19 19 19 19 19 19 20 20 20 20 21 21 21 20 20 19 18 17 16 16 15 15 15 15 14 14 13 13 12 12 12 11 11 11 11 11 11 10 10 9 9 8 8 8 8 8 7 7 8 8 8 8 8 8 8 8 8 8 7 7 7 7 6 6 6 6 6 6 6 6 6 7
13 13 13 12 12 12 12 12 12 13 14 15 16 17 18 19 19 19 20 20 20 20 20 21 21 21 21 20 19 18 17 16 16 15 15 15 15 15 14 13 13 13 12 12 12 12 12 12 11 11 11 10 10 9 9 8 8 8 8 7 7 7 8 8 8 8 8 8 8 8 8 8 8 8 7 7 7 7 7 6 6 6 6 7 7 7
14 14 13 13 13 13 13 13 13 13 14 15 16 17 18 18 18 18 18 19 19 20 20 21 21 20 19 18 17 17 17 16 16 15 15 15 15 14 14 13 13 13 13 12 12 12 12 12 11 11 11 10 10 9 9 8 8 8 8 7 7 8 7 8 8 8 8 8 8 8 8 8 8 8 8 8 7 7 7 7 7 7 7 7 7 7
15 14 14 14 14 14 14 14 14 14 15 16 16 17 17 18 17 17 16 17 17 18 19 19 19 18 17 17 16 17 17 17 16 16 16 16 15 14 14 14 13 13 13 13 13 12 12 12 11 11 11 10 10 9 9 8 8 8 8 8 8 7 7 7 7 7 7 7 7 7 8 8 8 8 8 8 7 7 7 7 7 7 7 7 7 8
16 16 15 15 15 15 15 15 15 15 16 16 17 17 17 17 17 17 17 17 17 17 17 17 17 16 16 16 16 17 18 16 16 16 16 16 15 14 14 14 14 13 13 13 13 13 12 12 11 11 10 10 10 9 9 9 8 8 8 8 7 7 7 7 7 7 7 7 7 7 7 7 8 8 8 8 8 8 8 8 7 8 8 8 8 8
17 16 16 16 16 16 16 16 16 16 16 16 17 17 17 17 17 17 18 18 17 17 16 15 15 15 15 15 16 16 16 15 15 15 16 15 15 14 14 14 14 13 13 13 13 13 11 11 11 11 10 10 9 9 9 9 8 8 8 7 7 7 7 7 7 7 7 7 7 7 7 7 8 8 8 8 8 8 8 8 8 8 8 8 8 8
17 16 16 16 16 16 16 15 15 15 15 16 16 16 16 16 16 17 17 17 17 16 16 15 15 15 15 15 15 15 14 13 14 15 15 15 14 14 14 14 13 13 13 13 13 12 11 10 10 10 10 9 9 9 9 8 8 8 7 7 7 7 7 7 7 7 7 7 7 7 7 8 8 8 8 8 9 9 9 9 9 9 9 9 9 9
16 16 16 16 16 16 15 15 15 15 15 15 15 15 15 16 16 16 16 16 16 16 16 15 15 15 14 15 14 14 13 13 14 15 14 14 14 14 13 13 13 13 13 13 12 12 11 10 10 9 9 9 9 8 8 8 8 7 7 7 7 7 7 7 7 7 7 7 7 7 8 8 8 8 9 9 9 9 10 10 10 10 10 10 10 10
16 16 16 16 16 15 15 15 15 15 15 15 15 15 15 15 15 16 16 15 15 15 15 15 15 15 14 14 14 13 13 13 14 14 14 14 13 13 13 13 13 13 13 13 12 12 11 10 10 10 9 9 9 8 8 8 8 7 7 7 7 7 7 7 7 7 7 7 8 8 8 8 8 9 9 10 10 10 11 11 11 11 11 11 11 11
16 16 16 16 15 15 15 15 15 15 15 15 15 15 15 15 15 15 15 15 14 14 14 14 14 14 14 14 13 13 13 13 13 14 14 13 13 13 13 13 13 13 13 13 12 12 11 11 10 10 10 10 10 9 9 8 8 8 8 8 8 7 7 7 7 7 8 8 8 8 8 9 9 9 10 10 11 11 12 12 12 12 12 12 12 12
16 16 16 16 15 15 15 15 15 15 15 15 15 15 15 15 15 14 14 14 14 13 13 13 13 13 13 13 13 13 13 13 13 13 13 13 13 13 13 13 13 13 12 12 12 11 11 10 10 10 10 10 10 10 9 9 9 9 8 8 8 8 8 8 8 8 8 8 9 9 9 9 9 10 10 11 11 12 13 13 13 13 13 13 13 13
16 16 16 15 15 15 15 15 15 15 15 15 15 15 15 15 14 14 14 13 13 13 13 12 12 12 12 12 12 12 13 13 13 13 13 13 13 13 13 13 13 12 12 11 11 11 10 10 10 10 10 10 10 9 9 9 9 9 9 9 8 8 8 8 8 8 8 9 9 9 9 9 10 10 11 11 12 12 13 13 14 14 14 14 14 14
16 16 15 15 15 15 15 15 15 15 15 15 15 15 14 14 14 14 13 13 13 13 13 12 12 12 12 12 12 12 12 12 13 13 13 13 13 13 13 12 12 12 11 11 11 10 10 10 10 10 10 10 9 9 9 9 9 9 9 9 9 9 9 9 9 9 9 9 10 10 10 10 10 11 11 11 12 12 13 13 14 14 14 14 14 14
15 15 15 15 15 15 15 15 15 15 15 15 15 14 14 14 13 13 13 13 13 12 12 12 12 12 12 12 12 12 12 12 12 12 12 12 12 12 12 12 12 11 11 11 11 10 10 10 10 10 10 10 9 9 9 9 9 9 9 9 9 10 10 10 10 10 10 10 10 10 11 11 11 11 11 12 12 12 13 13 14 14 14 14 14 14
15 15 15 16 16 16 16 16 16 15 15 15 15 14 14 14 13 13 13 13 13 12 12 12 12 12 12 12 12 12 12 12 12 12 12 12 12 12 12 12 11 11 11 11 11 11 11 10 10 10 10 10 10 9 9 9 9 10 10 10 10 10 10 11 10 10 10 10 11 11 11 12 12 12 12 12 12 12 13 13 13 14 14 14 15 15
15 15 16 16 16 16 16 16 16 16 16 15 15 15 14 14 13 13 13 13 13 13 12 12 12 12 12 12 12 12 12 12 12 12 12 12 12 12 12 11 11 11 11 11 11 11 11 11 11 11 10 10 10 10 10 10 10 10 10 10 10 11 11 11 11 11 11 12 12 12 13 13 13 13 13 13 13 13 13 13 13 14 14 14 15 15
15 16 16 16 16 16 17 17 17 16 16 16 15 15 14 14 14 13 13 13 13 13 13 13 13 13 13 13 13 12 12 12 12 12 12 12 12 11 11 11 11 11 11 11 11 11 11 11 11 11 11 10 10 10 10 10 10 10 10 10 11 11 11 12 12 12 12 12 13 13 14 14 14 14 14 14 14 13 13 13 13 13 14 14 14 15
16 16 16 16 16 17 17 17 17 17 16 16 16 15 15 14 14 14 14 13 13 13 13 13 13 13 13 13 13 13 13 12 12 12 12 12 11 11 11 11 11 11 11 11 11 10 10 10 10 11 10 10 10 9 9 9 9 10 10 11 11 11 11 12 12 12 13 13 14 14 15 15 15 15 15 15 14 14 14 13 13 13 14 14 15 15
16 16 16 16 17 17 17 17 17 17 16 16 16 15 15 15 15 14 14 14 13 13 13 13 13 13 13 13 13 13 12 12 12 12 12 11 11 11 11 11 11 11 11 11 11 10 10 10 10 10 10 9 9 9 9 9 9 10 10 11 11 11 12 12 13 13 13 14 15 15 16 15 15 15 15 15 15 14 14 14 13 13 14 14 15 15
17 16 16 17 17 17 17 17 17 16 16 16 16 15 15 15 15 14 14 14 13 13 13 13 13 12 12 12 12 12 12 12 12 11 11 11 11 11 11 11 11 11 11 11 11 10 10 10 10 9 9 9 8 9 9 9 9 9 10 11 11 11 12 12 13 13 14 15 15 16 16 15 15 15 15 15 15 15 14 14 14 14 14 14 15 15
17 17 17 17 17 17 17 17 17 16 16 16 16 15 15 15 14 14 14 14 13 13 13 13 12 12 12 12 11 11 11 11 11 11 11 11 11 11 11 11 11 11 10 10 10 10 10 10 10 9 9 8 8 8 9 9 9 10 10 11 11 11 12 13 13 14 14 15 15 16 16 15 15 15 15 15 15 14 14 14 14 14 14 14 15 15
18 18 18 18 18 18 17 17 17 17 16 16 16 15 15 15 14 14 14 13 13 13 13 12 12 12 11 11 11 11 10 10 10 10 10 10 10 10 10 10 10 10 10 10 10 10 10 10 9 9 9 8 8 8 8 9 9 10 11 11 11 12 12 13 14 14 14 15 15 15 14 14 14 14 15 15 15 14 14 13 14 14 14 15 15 15
19 19 19 18 18 18 18 17 17 17 16 16 16 15 15 15 14 14 14 13 13 13 13 12 12 12 11 11 11 10 10 10 10 10 10 10 10 10 10 10 10 10 10 10 10 10 10 10 9 9 9 9 9 9 9 10 10 11 11 12 12 12 12 13 13 14 14 14 14 14 13 13 13 14 14 14 14 14 14 13 14 14 14 15 15 15
20 19 19 19 19 18 18 18 17 17 16 16 16 16 15 15 15 14 14 14 13 13 13 12 12 11 11 11 10 10 9 9 9 9 9 9 9 9 10 10 10 10 10 10 10 10 10 9 10 10 10 10 10 10 10 11 11 12 12 12 12 12 12 12 13 13 13 13 13 13 13 12 12 13 13 14 14 14 14 14 14 14 15 15 14 15
21 20 20 20 19 19 18 18 17 17 17 17 16 16 16 15 15 15 14 14 13 13 12 12 11 11 11 10 10 9 9 8 8 8 8 8 8 9 9 9 9 9 10 10 10 10 10 10 10 10 10 11 11 11 11 12 12 12 11 11 11 11 11 12 12 13 13 13 12 12 12 12 12 12 12 13 14 14 14 14 14 15 15 15 14 14
Wind_Direction
263 265 267 268 269 270 272 274 274 273 271 267 262 257 253 250 248 248 249 251 253 254 255 255 256 256 257 258 260 261 262 261 260 260 262 267 274 280 283 282 280 276 271 265 259 252 245 241 239 240 242 244 245 246 247 248 249 251 252 254 255 255 257 259 261 264 266 269 272 275 278 280 281 279 275 272 270 269 270 271 271 272 271 268 264 262
263 265 266 267 268 271 272 272 272 271 269 265 260 255 251 249 248 249 250 252 253 254 255 254 254 254 254 255 257 258 258 257 257 257 261 267 274 278 280 279 276 272 267 261 254 247 240 236 234 235 237 239 242 243 244 246 247 249 251 253 255 257 258 260 262 264 267 269 271 273 275 276 275 272 269 268 267 267 268 269 269 268 267 263 259 255
264 265 266 266 267 268 269 269 268 266 265 261 255 250 247 246 246 247 249 252 253 254 253 253 252 252 252 252 253 254 254 254 255 257 261 267 272 276 277 276 273 269 263 256 248 241 235 231 229 229 232 234 237 240 242 245 247 249 251 253 255 257 258 260 261 263 265 266 268 269 270 270 269 268 267 267 267 268 269 269 269 268 267 263 257 251
264 264 264 264 263 262 262 261 260 258 255 251 247 243 241 242 244 246 249 251 253 253 252 251 251 250 249 249 250 250 251 252 253 257 262 267 272 274 275 273 270 266 259 251 243 235 230 226 225 227 230 233 237 241 244 247 249 251 252 254 255 256 257 259 259 260 261 262 264 265 266 266 266 267 267 267 268 269 270 270 270 269 269 265 258 250
263 262 261 259 257 255 253 252 251 248 245 242 239 237 237 239 242 245 247 249 250 249 248 248 247 246 245 245 246 247 248 249 252 257 263 269 272 274 273 271 267 262 255 247 238 231 226 224 225 228 232 237 242 246 249 251 253 254 255 255 256 256 257 257 258 258 259 260 261 262 264 265 266 267 268 268 269 269 270 270 270 269 268 265 258 251
261 259 257 255 252 251 249 248 246 244 240 238 236 235 236 238 240 241 242 244 245 245 244 243 242 242 241 242 243 245 246 248 252 258 264 270 273 273 271 268 263 257 251 243 235 230 227 228 230 235 240 245 249 253 255 256 256 256 256 256 256 256 257 257 257 257 258 259 261 262 264 265 266 267 267 268 268 268 268 268 268 267 266 263 257 251
257 256 254 252 250 248 247 247 245 244 241 238 235 234 234 234 235 236 238 240 241 241 240 239 239 239 239 240 241 243 245 248 252 258 264 268 271 271 269 264 258 253 247 240 234 231 232 235 239 244 249 254 258 260 261 260 259 258 257 257 257 257 257 257 257 257 258 259 260 262 263 265 266 266 266 266 266 265 265 265 264 263 262 260 255 250
254 253 250 248 247 246 244 243 243 243 242 239 237 235 233 232 232 232 234 237 238 238 237 236 236 236 237 238 240 242 244 248 253 258 263 266 268 267 265 259 254 250 246 241 237 236 239 243 249 254 258 262 264 265 265 263 261 259 258 257 257 257 257 257 257 257 258 259 260 261 262 263 264 263 263 262 262 261 260 260 259 258 257 256 253 249
254 253 251 249 247 245 244 242 241 241 241 240 238 237 236 234 232 232 232 233 234 234 234 234 234 235 236 237 238 240 243 247 251 256 260 262 263 261 256 248 245 245 246 244 242 243 247 252 257 261 265 268 269 268 266 264 262 260 259 258 257 256 256 256 256 256 257 259 259 260 261 261 261 260 259 257 256 255 255 254 254 254 253 253 252 249
254 254 254 252 249 247 245 244 244 242 241 240 238 236 236 236 235 233 232 232 232 233 234 233 233 234 235 236 237 239 242 246 250 254 257 258 256 252 243 237 239 243 246 246 247 250 255 259 264 268 271 271 271 268 266 264 262 261 260 258 257 256 255 254 254 255 256 257 258 258 259 258 257 255 254 252 251 250 249 249 250 250 251 252 252 251
254 254 255 254 252 250 247 246 246 245 243 240 237 235 233 234 235 235 233 232 232 233 233 234 234 234 234 235 236 238 242 247 251 255 256 255 253 249 243 240 242 244 247 249 252 256 261 266 270 272 274 273 270 267 264 263 262 261 259 258 256 255 254 253 253 253 254 255 255 256 255 254 253 251 249 247 246 245 245 245 246 247 249 250 251 251
253 254 254 254 253 251 248 246 244 243 241 238 236 235 234 233 233 234 234 235 234 233 233 234 235 235 235 235 237 239 243 248 252 254 254 251 248 245 244 243 244 245 247 251 256 261 266 270 273 275 274 272 269 265 262 261 260 258 257 255 254 253 251 251 251 251 251 251 252 252 251 250 249 248 246 244 243 242 243 243 244 245 247 248 249 250
253 253 253 253 253 251 249 245 241 239 238 238 237 236 235 235 234 233 233 235 236 236 236 236 236 236 236 236 237 240 243 248 251 252 250 246 242 239 238 238 241 244 248 253 259 264 268 271 273 274 272 270 266 263 259 257 256 254 253 251 250 249 248 247 247 247 247 247 248 248 247 247 246 245 244 243 242 241 241 242 242 243 244 245 246 247
255 255 254 254 253 252 250 246 242 239 239 240 240 239 239 239 237 234 232 233 235 236 236 236 236 235 236 236 237 240 243 247 249 249 246 241 238 236 234 235 238 244 249 255 261 266 268 270 271 270 269 266 264 260 256 253 250 249 247 246 245 244 243 243 242 242 243 243 243 243 244 244 244 243 243 242 241 241 240 240 240 240 241 242 243 244
257 256 255 254 254 254 252 250 246 244 244 243 241 239 240 240 238 235 233 233 234 234 234 234 234 235 235 236 237 240 243 245 246 244 241 238 236 234 233 235 239 245 251 255 260 264 266 267 267 266 264 263 260 256 252 248 245 243 242 241 240 239 239 239 238 238 239 239 239 239 240 241 240 241 241 240 240 239 239 238 238 239 239 240 241 241
257 256 255 254 255 255 255 254 251 247 246 243 241 240 239 239 238 236 234 234 235 234 231 230 231 232 234 235 237 239 242 244 243 240 236 233 233 234 234 236 240 246 252 256 259 262 264 264 263 262 261 259 256 251 247 242 240 238 237 236 236 235 235 235 235 235 235 235 234 235 235 236 236 237 238 238 237 237 237 236 236 236 237 238 239 239
255 255 255 254 254 254 255 255 253 249 246 244 243 243 242 241 239 237 236 236 236 233 230 229 228 228 231 233 236 240 242 241 240 237 233 230 230 233 236 238 242 248 253 256 259 260 261 261 261 260 258 255 251 246 242 239 236 235 233 232 232 232 232 232 231 231 230 229 229 229 229 230 231 232 232 233 233 233 233 233 233 234 234 235 237 238
252 253 253 252 252 252 253 254 251 247 244 242 242 242 241 239 237 235 236 236 235 233 231 230 229 229 231 233 236 241 244 240 236 233 229 227 229 232 237 240 244 249 253 255 257 258 259 259 258 257 255 250 246 242 239 236 234 233 231 230 229 229 229 228 227 225 224 223 222 222 223 224 225 226 227 228 228 229 229 229 229 230 231 232 233 234
251 251 251 250 249 249 251 252 250 246 241 238 237 236 234 233 232 232 234 235 235 234 232 231 231 233 236 239 241 244 245 239 232 228 226 225 227 231 236 241 245 248 251 253 254 255 255 255 254 253 249 245 241 238 236 234 233 231 228 227 226 226 226 224 222 220 218 216 215 216 217 218 220 222 222 223 224 225 225 225 225 225 226 227 229 229
251 251 251 249 246 246 248 250 250 246 241 238 235 232 231 231 231 232 233 234 235 235 234 233 233 235 239 244 246 243 240 235 228 225 225 226 228 232 236 240 244 247 248 249 250 251 250 250 249 247 243 240 237 235 233 232 231 228 226 224 223 223 222 220 217 215 213 211 211 211 213 215 216 218 219 220 221 222 222 223 222 222 223 223 223 224
248 249 249 248 246 244 245 248 248 245 240 235 231 229 227 229 230 232 233 233 233 232 232 231 233 236 240 243 242 237 233 228 224 224 226 228 231 233 237 239 242 244 245 246 246 246 246 245 243 240 237 234 233 231 231 230 228 226 223 221 220 220 219 217 214 212 209 209 209 209 211 213 215 216 218 218 219 220 221 222 223 222 222 222 222 222
245 246 247 246 244 243 244 246 244 240 233 227 225 225 224 225 228 230 231 232 231 229 228 229 232 235 237 236 232 228 226 223 223 225 228 231 233 235 236 239 240 241 242 241 241 241 240 238 236 233 231 229 229 228 227 226 224 222 219 217 216 216 216 214 212 210 209 208 208 209 211 213 215 216 217 218 219 220 221 222 223 224 224 225 225 225
239 242 243 243 241 240 240 240 238 232 227 221 221 223 224 223 226 229 230 230 228 227 228 230 232 233 232 228 224 221 220 220 222 226 229 232 234 235 235 236 237 238 238 237 236 235 234 231 229 226 225 225 225 224 224 222 220 217 215 213 213 213 213 212 210 209 209 209 209 211 213 214 216 217 218 219 220 221 222 224 225 227 228 230 231 231
233 236 238 238 238 237 238 237 233 227 222 219 218 219 219 219 221 223 224 225 225 226 227 228 229 228 226 222 218 217 218 221 223 226 228 232 234 234 233 234 234 234 234 232 230 229 227 224 222 221 221 221 221 220 220 218 216 213 211 210 210 211 211 210 210 209 209 209 211 214 216 218 218 219 220 222 223 225 226 228 230 232 233 235 237 238
228 231 233 233 233 234 235 234 231 226 222 218 216 215 214 213 213 214 215 217 219 221 222 223 222 221 220 219 217 217 220 223 225 226 228 230 232 232 230 230 230 230 229 226 224 223 220 219 217 217 217 217 217 217 216 214 212 210 208 207 208 208 209 209 209 209 209 211 213 216 218 220 222 223 224 226 229 231 233 235 237 238 240 242 243 244
225 227 227 227 226 227 229 229 228 224 222 219 216 213 210 208 207 207 208 210 212 214 215 217 217 218 219 218 218 219 222 225 227 227 228 229 230 229 227 227 226 225 224 221 219 217 215 214 213 213 213 213 213 213 212 210 208 207 205 205 206 207 208 209 210 210 211 213 215 216 218 219 221 222 224 227 231 235 239 242 244 245 246 247 248 249
222 222 220 219 218 219 220 221 221 219 218 216 214 212 209 206 204 203 204 206 208 210 212 213 215 216 218 219 219 221 223 226 227 227 226 227 227 226 224 222 221 220 218 216 215 213 212 210 210 210 211 211 211 209 208 207 206 205 204 204 205 206 209 210 211 212 213 215 217 218 219 219 219 220 221 224 227 231 236 241 244 247 249 250 251 252
219 218 217 215 214 213 213 214 214 213 212 211 210 209 208 206 204 203 204 206 208 209 212 214 216 217 217 218 220 221 223 223 224 224 223 223 223 223 220 218 217 215 214 213 211 210 209 208 208 208 209 209 209 208 207 206 206 205 205 205 206 208 210 212 214 216 217 219 220 221 221 221 221 221 222 224 226 228 231 235 239 244 247 250 252 254
218 218 217 215 213 211 210 210 209 209 208 208 207 207 207 206 206 206 208 210 211 212 214 217 218 219 219 219 219 219 219 220 219 219 219 219 220 219 215 214 212 211 210 209 208 207 207 207 207 207 208 209 209 208 207 207 207 207 207 208 210 212 214 216 218 220 222 224 226 226 226 226 226 226 226 228 230 232 234 235 237 239 242 246 250 254
219 219 217 216 215 213 211 210 209 208 207 207 207 207 207 207 207 208 210 214 215 216 217 219 220 220 219 217 216 215 216 216 215 214 215 216 216 215 211 210 208 207 206 205 204 204 204 205 205 206 208 209 209 209 209 210 211 211 211 213 214 216 218 221 223 226 229 230 232 233 233 233 232 232 232 233 235 238 240 241 241 242 242 244 246 250
220 219 218 217 216 215 214 213 212 210 210 209 209 209 209 209 208 207 208 211 215 217 219 220 220 218 216 214 213 214 215 212 211 212 212 213 213 211 208 208 206 204 203 202 202 203 205 204 205 205 207 209 209 210 211 212 214 215 217 218 220 221 223 227 230 233 235 237 239 240 240 240 239 238 238 239 241 243 246 247 248 248 248 247 247 249
220 219 218 218 218 217 217 216 215 214 213 212 212 211 211 211 210 209 209 210 211 213 215 216 216 215 214 214 215 216 216 210 209 210 211 211 210 207 206 206 204 203 202 202 202 204 206 206 206 206 208 210 211 212 213 215 216 219 221 224 226 228 230 233 236 239 241 243 245 246 246 246 245 244 244 244 246 248 250 252 254 254 254 253 253 254
219 218 217 217 217 218 217 217 215 215 214 213 212 212 211 211 210 211 211 211 210 210 210 210 211 211 212 213 215 215 214 210 209 210 210 210 208 207 205 205 204 203 202 202 203 205 207 209 208 208 210 211 213 214 216 217 219 222 225 229 232 234 237 240 243 245 248 249 251 252 252 251 251 250 249 249 250 252 254 256 258 258 258 258 258 258
217 216 215 215 214 213 213 212 212 211 211 210 210 209 208 208 208 209 210 210 209 208 208 208 208 209 210 211 212 211 208 206 206 207 207 208 207 206 205 205 205 204 204 204 205 206 209 209 210 211 213 215 216 219 220 222 224 227 230 234 236 239 242 245 249 251 253 255 256 257 257 257 256 256 255 255 255 256 258 259 260 261 261 260 260 260
214 213 213 212 211 210 208 207 206 206 206 206 206 206 205 205 206 206 207 207 207 207 208 208 208 208 208 209 209 207 205 203 203 203 204 205 205 205 205 206 206 206 206 207 208 209 211 211 213 215 218 220 222 224 226 228 231 234 236 239 242 244 247 250 254 257 259 261 262 263 263 263 262 261 261 260 261 261 261 262 262 262 262 262 261 261
210 209 209 209 208 207 205 204 204 203 203 203 203 203 203 204 204 205 205 205 206 206 207 207 207 207 206 206 205 204 202 201 201 201 202 203 203 204 206 206 207 207 208 210 211 212 214 215 216 219 223 226 228 230 232 234 237 240 242 244 247 249 252 256 259 262 265 266 267 268 268 268 266 265 265 264 264 264 263 263 263 263 263 262 262 262
208 206 206 206 205 204 204 203 203 202 202 201 202 202 202 203 203 204 204 205 204 205 205 205 205 205 205 204 202 201 199 199 200 201 202 203 203 204 205 206 208 210 210 212 213 215 216 218 220 223 226 231 234 236 237 239 242 245 247 249 252 255 258 260 262 265 268 269 271 272 272 270 268 267 266 265 264 264 264 263 263 263 263 262 262 262
206 205 204 204 203 203 202 202 201 201 200 201 201 201 202 202 203 203 203 203 203 202 202 202 202 202 202 201 201 200 199 199 200 201 202 204 205 206 207 207 210 212 213 213 215 217 219 220 222 225 228 233 236 238 238 241 244 248 251 253 256 258 261 263 264 266 269 271 272 273 273 272 270 269 266 265 264 263 263 263 262 262 262 261 261 261
205 204 203 202 201 200 200 200 200 200 200 200 201 201 201 201 201 201 201 201 200 200 199 199 199 199 199 200 200 200 200 201 202 203 205 206 207 208 209 209 211 213 214 215 217 219 221 223 225 227 230 233 235 236 237 240 244 248 252 254 257 259 261 263 265 266 268 270 272 274 274 274 274 272 269 267 265 263 262 261 261 260 260 260 260 260
204 202 201 200 199 199 199 198 198 197 198 198 199 199 199 199 198 198 198 197 197 197 197 197 197 197 198 199 200 201 202 203 204 206 207 209 210 211 211 211 211 213 214 216 218 220 221 223 226 228 230 233 235 236 236 239 242 246 249 252 255 257 258 260 261 264 266 269 271 273 275 276 276 276 274 271 268 266 263 262 260 259 258 257 257 258
202 200 199 198 198 197 196 195 195 195 196 196 196 196 196 196 196 195 195 194 194 194 194 195 195 196 197 199 200 202 203 204 206 207 209 210 212 213 213 213 213 213 214 215 217 220 221 222 224 226 228 230 233 235 237 239 241 244 246 250 253 255 256 257 259 262 265 269 271 274 276 278 279 278 277 275 272 269 266 262 260 258 257 256 255 256
201 200 199 197 196 195 194 193 193 193 193 193 194 195 195 194 194 194 193 193 193 193 193 194 194 196 197 198 200 201 203 204 206 207 208 210 212 213 214 214 214 214 215 215 217 219 221 222 223 224 226 228 230 232 235 238 240 242 243 246 249 253 257 259 261 263 267 270 273 275 277 279 279 279 279 277 275 272 267 263 260 257 256 255 254 254
202 200 198 196 194 193 193 192 192 191 191 191 192 192 192 191 191 191 191 191 191 192 193 194 195 195 196 198 199 201 202 203 204 205 207 208 210 211 213 214 215 215 216 216 217 220 222 223 224 225 227 228 229 229 231 234 237 239 241 243 246 251 256 260 263 266 268 271 274 276 277 278 279 279 279 278 275 273 269 264 260 257 255 254 253 253
202 200 197 194 193 193 192 191 190 189 188 188 188 188 188 188 188 188 188 188 189 190 191 193 194 195 196 197 198 200 201 202 203 204 205 207 208 210 211 212 214 215 216 216 217 219 222 223 225 226 227 228 228 228 228 230 233 236 239 243 246 249 253 258 263 267 269 272 274 276 277 278 279 279 278 277 275 272 269 265 261 257 255 253 253 253
202 199 196 194 192 191 190 189 188 187 186 185 184 184 184 185 185 185 185 185 186 187 189 191 193 194 195 196 198 199 200 201 202 203 203 205 207 208 210 211 212 213 215 216 217 219 220 222 225 227 227 227 226 225 224 226 229 234 239 244 248 251 255 260 264 267 270 272 274 275 276 277 278 277 276 275 273 271 268 265 262 258 256 254 253 252
200 198 196 194 192 191 190 188 186 185 184 183 182 182 182 182 182 182 182 183 184 186 188 191 193 194 196 197 198 198 199 200 201 202 203 204 205 207 208 210 211 212 213 215 217 219 220 222 223 225 225 225 224 223 223 225 228 234 241 246 251 255 260 263 266 268 270 272 273 275 276 277 276 275 274 273 272 270 267 265 261 258 256 254 253 253
199 197 196 194 193 191 189 187 186 184 183 182 181 180 180 180 180 181 181 182 184 186 188 191 193 195 197 198 199 199 199 200 200 201 202 202 204 205 206 208 209 211 212 214 215 217 219 220 222 222 222 221 221 222 226 230 234 239 245 251 256 260 263 265 267 269 270 271 272 274 276 276 275 274 273 272 271 269 267 264 261 259 256 255 254 253
198 197 196 195 193 191 189 187 186 185 184 183 181 180 179 179 180 180 182 182 184 185 187 190 193 196 198 199 200 200 201 201 201 201 201 201 202 204 205 206 207 208 210 211 212 213 214 216 217 218 219 220 222 226 231 237 242 247 252 257 261 263 265 266 267 269 270 270 271 273 274 274 273 273 272 271 270 269 267 265 262 259 257 255 254 254
197 196 196 195 194 192 190 188 186 185 185 183 182 181 180 179 180 181 182 183 184 186 187 190 193 195 198 200 200 201 202 202 202 202 202 203 203 204 205 205 206 207 207 209 210 210 211 213 215 217 220 224 229 234 241 247 251 254 258 261 264 265 266 266 267 268 269 270 270 271 271 271 271 270 270 270 270 269 267 266 263 260 258 256 255 255
197 196 196 195 194 193 191 189 188 186 185 184 183 182 181 181 181 181 182 183 185 186 188 189 192 195 198 200 201 202 203 203 204 205 205 205 205 206 206 206 206 206 207 209 210 211 214 216 219 223 228 232 237 243 250 254 257 259 261 262 264 264 264 265 265 267 268 269 269 269 269 268 267 267 267 267 268 267 267 266 265 262 259 257 256 255
196 195 195 195 194 193 191 190 189 187 186 185 184 183 183 183 183 183 184 184 185 186 188 190 192 194 198 201 203 204 205 206 207 208 209 209 208 209 208 208 208 209 210 212 214 217 219 223 227 232 237 241 244 247 252 256 259 261 262 262 263 264 264 264 265 266 267 267 268 268 267 266 265 264 263 264 265 265 265 265 264 263 261 259 257 256